Location: Asheville, NC
(35.6000°N, 82.5500°W)
Time: 23:01:36

CUTE-I - Pass Details

Date: 15 March 2018
Orbit: 812 x 824 km, 98.7° (Epoch: 20 March)

Event Time Altitude Azimuth Distance (km) Brightness Sun altitude
Rises 20:25:32 0° 211° (SSW) 3,330 ? -10.5°
Reaches altitude 10° 20:28:59 10° 235° (SW) 2,406 ? -11.2°
Maximum altitude 20:31:52 15° 268° (W) 2,098 ? -11.8°
Drops below altitude 10° 20:34:46 10° 301° (WNW) 2,418 ? -12.4°
Sets 20:38:16 0° 325° (NW) 3,359 ? -13.1°
